Location: Hickory_Viewmont
(35.7830°N, 81.3170°W)
Time: 22:06:36
(UTC-04:00)

Daily predictions for brighter satellites

Satellite Brightness Start Highest point End
(mag) Time Altitude Azimuth Time Altitude Azimuth Time Altitude Azimuth
Meteor 2-21 Rocket 4.4 19:04:01 10° S 19:10:04 69° E 19:16:06 10° NNE
SL-14 R/B 3.1 19:07:07 10° N 19:10:58 71° E 19:14:48 10° SSE
Cosmos 2366 rocket 4.1 19:05:59 10° SSE 19:12:01 54° E 19:18:02 10° NNE
SMAP 3.6 19:09:40 10° S 19:14:17 67° WSW 19:18:56 10° NNW
Cosmos 1242 Rocket 4.1 19:12:27 10° SSW 19:15:52 41° WNW 19:19:20 10° N
MTI 4.0 19:12:53 10° N 19:16:06 77° WNW 19:19:16 10° SSW
Cosmos 2221 4.0 19:16:30 10° SE 19:19:09 16° E 19:21:50 10° NE
METEOR-M 4.2 19:17:58 10° SSE 19:23:12 58° ENE 19:28:27 10° N
ISS -3.9 19:20:02 10° NW 19:23:19 77° NE 19:26:35 10° SE
SPOT 3 Rocket 3.7 19:19:51 10° SSE 19:24:51 52° ENE 19:29:53 10° N
Cosmos 1500 Rocket 4.3 19:21:20 10° NNE 19:25:11 30° ENE 19:29:00 10° SE
SL-8 Rocket 4.1 19:20:52 10° S 19:27:02 82° W 19:33:17 10° N
Cosmos 1315 Rocket 4.1 19:28:10 10° NNE 19:31:15 20° ENE 19:34:20 10° ESE
COSMOS 2428 4.3 19:29:23 10° NNE 19:32:21 14° NE 19:34:16 12° ENE
Cosmos 921 Rocket 4.4 19:29:13 10° NNE 19:32:23 19° ENE 19:34:56 12° ESE
Cosmos 1833 4.2 19:31:05 10° S 19:36:43 62° ESE 19:42:18 10° NNE
Cosmos 2056 Rocket 3.4 19:32:08 10° NNW 19:37:28 76° ENE 19:42:40 10° SSE
Cosmos 2098 Rocket 4.4 19:36:32 10° SE 19:39:24 19° E 19:42:44 10° NE
NOAA 12 4.2 19:34:43 10° SSE 19:39:50 54° ENE 19:45:01 10° N
Meteor 2-1 Rocket 4.3 19:34:25 10° S 19:40:00 58° E 19:45:45 10° NNE
Cosmos 2360 Rocket 2.8 19:34:52 10° N 19:40:03 36° ENE 19:45:12 10° SE
Cosmos 2058 3.2 19:37:04 10° N 19:41:06 45° E 19:45:05 10° SSE
Cosmos 2219 4.4 19:37:49 10° SSE 19:42:01 21° E 19:45:35 12° ENE
COSMO-SKYMED 1 3.0 19:40:24 10° N 19:44:43 66° WNW 19:49:00 10° SSW
RESURS DK-1 3.5 19:42:06 10° N 19:45:31 25° ENE 19:47:05 20° E
Cosmos 2322 Rocket 2.3 19:40:37 10° NNW 19:46:14 79° WSW 19:51:50 10° SSE
Cosmos 2218 Rocket 4.4 19:40:54 10° SSW 19:47:01 68° W 19:53:09 10° N
Cosmos 1626 2.0 19:44:07 10° N 19:47:52 79° E 19:51:35 10° S
BREEZE-M DEB (TANK) 2.4 19:49:20 10° WSW 19:51:23 33° NNW 19:52:36 17° NNE
SL-8 R/B 3.8 19:47:45 10° WSW 19:52:35 78° NW 19:56:26 16° NE
Meteor 1-11 4.4 19:47:06 10° NNW 19:52:53 79° W 19:58:35 10° S
SAR-Lupe-3 4.5 19:49:58 10° NNE 19:53:32 62° ESE 19:57:03 10° S
SJ-6B 3.9 19:55:12 22° ENE 19:55:12 22° ENE 19:57:46 10° NNE
Cosmos 1452 Rocket 3.9 19:50:23 10° N 19:55:21 42° ENE 20:00:14 10° SE
USA 267 3.3 19:49:53 10° NE 19:56:20 60° SE 20:02:45 10° SSW
Centaur AC-112 4.0 19:52:37 10° WSW 19:59:27 25° SSW 20:01:27 16° SE
Atlas Centaur 2 2.6 19:56:06 10° WSW 20:00:55 49° S 20:04:35 22° ESE
Cosmos 1727 Rocket 4.0 19:55:42 10° N 20:02:05 88° W 20:08:24 10° S
DELTA 2 R/B (1) 3.8 19:57:18 10° WNW 20:02:49 59° N 20:05:56 26° ENE
Cosmos 2322 4.0 20:00:03 10° N 20:05:33 47° ENE 20:09:19 19° SE
ALOS 2.3 20:03:40 10° S 20:08:20 83° WSW 20:13:02 10° NNW
BREEZE M DEB (TANK) 4.4 20:08:14 10° NNW 20:09:30 11° N 20:10:26 10° NNE
CZ-4C R/B 2.5 20:06:24 10° S 20:10:58 36° ESE 20:12:17 31° E
FENGYUN 3A 3.7 20:07:34 10° S 20:12:57 82° W 20:18:23 10° NNW
Cosmos 1703 4.0 20:13:47 10° NNW 20:17:38 54° W 20:21:26 10° S
Tiangong 1 2.8 20:27:52 10° W 20:29:46 24° SW 20:29:46 24° SW
ASTRO E2 3.3 20:26:39 10° WSW 20:30:28 44° S 20:30:31 44° S
Cosmos 2219 Rocket 3.5 20:26:04 10° N 20:29:16 23° NE 20:29:16 23° NE
Thor Agena Rocket 4.0 20:28:16 10° N 20:33:18 60° WNW 20:38:15 10° SSW
Cosmos 1048 Rocket 3.8 20:28:43 10° SSW 20:33:51 82° ESE 20:38:42 12° NNE
Iridium 4 Rocket 3.9 20:33:57 10° S 20:39:13 68° W 20:44:56 10° N
SL-16 R/B 4.4 20:34:59 10° NW 20:39:32 25° WSW 20:44:04 10° SSW
Cosmos 2333 4.5 20:35:31 10° N 20:40:47 48° NE 20:40:47 48° NE
Cosmos 2237 4.1 20:35:30 10° NNW 20:41:15 77° ENE 20:42:59 46° SE
Cosmos 1420 Rocket 3.9 20:37:28 10° NNW 20:42:49 86° ENE 20:44:27 46° SSE
Envisat 4.5 20:46:16 24° NNE 20:46:16 24° NNE 20:48:27 10° N
H-2A R/B 3.3 20:43:00 37° SSW 20:44:16 57° W 20:48:07 10° NNW
Resurs 01 Rocket 3.7 20:49:59 16° N 20:49:59 16° N 20:50:57 10° N
Cosmos 44 3.1 20:43:52 10° SSW 20:47:53 72° WSW 20:47:53 72° WSW
Delta 2 Rocket 4.3 20:45:32 10° W 20:47:45 36° W 20:47:45 36° W
Cosmos 2221 4.2 20:52:31 10° SW 20:56:23 33° WNW 21:00:19 10° NNW
Cosmos 2237 Rocket 4.2 20:54:16 10° N 20:55:40 15° NNE 20:55:40 15° NNE
Cosmos 44 Rocket 3.4 20:54:10 10° SW 20:58:42 66° WNW 20:58:42 66° WNW
COSMOS 2428 3.0 21:11:34 10° NNW 21:16:20 62° NW 21:16:20 62° NW
Cosmos 2333 Rocket 3.6 21:15:19 10° NNW 21:18:02 28° N 21:18:02 28° N
Cosmos 2360 Rocket 4.0 21:19:08 10° NW 21:23:51 27° WSW 21:28:04 12° SSW
MOS 1-B Rocket 4.2 21:25:31 61° WNW 21:25:31 61° WNW 21:30:42 10° NNW
Cosmos 2219 4.1 21:20:15 10° SW 21:25:45 46° WNW 21:27:40 34° NNW
USA 267 4.3 21:37:01 31° N 21:39:06 38° NW 21:45:01 10° W
Atlas Centaur 2 3.9 21:44:23 10° W 21:47:13 28° WSW 21:47:13 28° WSW
CZ-4C R/B 4.1 21:54:57 10° WSW 21:57:35 23° W 21:57:35 23° W
